{"data":{"norad_id":68087,"epoch":"2026-05-24T19:40:30.788256Z","epoch_age_seconds":87022,"freshness":"FRESH","line1":"1 68087U 26042U   26144.81980079  .00018571  00000+0  55926-3 0  9993","line2":"2 68087  53.1588 184.1954 0000465 100.9554 259.1501 15.34407951 13974","mean_motion":15.34407951,"eccentricity":4.65e-5,"inclination_deg":53.1588,"raan_deg":184.1954,"arg_perigee_deg":100.9554,"mean_anomaly_deg":259.1501,"bstar":0.00055926,"rev_number":1397,"period_min":93.847271780723,"perigee_km":462.36151028927,"apogee_km":462.99770623384,"semimajor_km":6840.8166082616,"source":"CELESTRAK","updated_at":"2026-05-25T13:38:21.821062Z"}}